Regional Weather Roundup
Issued by NWS

Home | Current Version | Previous Version | Text Only | Print | Product List | Glossary On
Versions: 1 2 3 4 5 6 7 8 9 10 11 12 13 14 15 16 17 18 19 20 21 22 23 24 25 26 27
000
ASUS42 KFFC 272203
RWRGA
WEATHER ROUNDUP FOR GEORGIA
NATIONAL WEATHER SERVICE PEACHTREE CITY GA
600 PM EDT FRI MAY 27 2016

NOTE: "FAIR" INDICATES FEW OR NO CLOUDS BELOW 12,000 FEET WITH NO
SIGNIFICANT WEATHER AND/OR OBSTRUCTIONS TO VISIBILITY.

* = USE WITH CAUTION. THE STATIONS MARKED WITH AN ASTERISK MAY NOT
REPORT WEATHER SUCH AS PRECIPITATION, FOG, OR THUNDER AND ARE NOT
QUALITY CONTROLLED BY NWS.

THE REMARK "TC" DENOTES TEMPERATURE READING IN DEGREES CELSIUS.

GAZ001>058-272300-
NORTH GEORGIA

CITY           SKY/WX    TMP DP  RH WIND       PRES   REMARKS
ATLANTA        PTSUNNY   84  59  42 SE15G21   30.04F
ATHENS         MOSUNNY   85  63  47 VRB6      30.06F
CHAMBLEE       SUNNY     84  59  42 S6        30.04F
ROME           MOSUNNY   85  63  47 S10       29.99F
WEST ATLANTA   SUNNY     85  60  42 SE14      30.03F
GAINESVILLE    MOSUNNY   80  59  48 SE9       30.09F
CARTERSVILLE   MOSUNNY   86  61  42 SE7       30.01F


CITY           SKY/WX    TMP DP  RH WIND       PRES   REMARKS
DALTON*        MOSUNNY   86  63  45 SE13G21   30.02S
CANTON*        PTSUNNY   84  50  30 E5        30.07S
BLAIRSVILLE*     N/A    N/A N/A N/A MISG      30.10F
$$

GAZ059>098-102>109-272300-
CENTRAL GEORGIA

CITY           SKY/WX    TMP DP  RH WIND       PRES   REMARKS
AUGUSTA-BUSH   SUNNY     86  59  39 SE8       30.02F
AUGUSTA-DANIEL MOSUNNY   88  59  37 E12       30.04F
COLUMBUS       MOSUNNY   86  58  38 SE9       29.99F
MACON          MOSUNNY   88  58  36 E10       30.01F
ROBINS AFB     SUNNY     86  60  41 SE9       30.00F


CITY           SKY/WX    TMP DP  RH WIND       PRES   REMARKS
LAGRANGE*      MOSUNNY   86  65  49 SE8       30.01F
SYLVANIA*      SUNNY     86  58  38 SE9       30.06F
MILLEDGEVILLE* MOSUNNY   82  61  47 E3        30.03F
$$

GAZ099>101-110>166-272300-
SOUTH GEORGIA

CITY           SKY/WX    TMP DP  RH WIND       PRES   REMARKS
SAVANNAH       MOSUNNY   82  62  50 E13       30.06F
VALDOSTA       MOSUNNY   88  62  41 SE9       29.98F
ALMA           SUNNY     84  62  47 E8G17     30.01F
ST SIMONS      SUNNY     80  67  64 NE12      30.05F
FT STEWART     MOSUNNY   82  62  50 E14       30.02F
ALBANY         SUNNY     88  48  25 SE8       30.01F
HUNTER AFB     MOSUNNY   79  65  62 E9        30.04F
MOODY AFB      MOSUNNY   87  59  37 E10       29.98F
BRUNSWICK      CLOUDY    84  68  58 NE10G17   30.06F


CITY           SKY/WX    TMP DP  RH WIND       PRES   REMARKS
BAINBRIDGE*    MOSUNNY   88  57  35 E9        29.98F
MOULTRIE*      PTSUNNY   84  55  37 SE6       30.00F
VIDALIA*       PTSUNNY   84  59  42 E12       30.03F
WAYCROSS*      SUNNY     83  63  51 SE13G20   30.01F
DOUGLAS*       MOSUNNY   88  57  35 SE7       30.02F
$$




USA.gov is the U.S. government's official web portal to all federal, state and local government web resources and services.